{"data":{"norad_id":53908,"intl_designator":"2022-119Y","name":"STARLINK-5057","alt_names":[],"object_type":"PAYLOAD","status":"ACTIVE","operator":null,"country":"US","launch_date":"2022-09-24","launch_site_code":"AFETR","launch_vehicle":null,"mission":null,"orbit_class":"UNKNOWN","rcs_meters":null,"size_class":null,"mass_kg":null,"dimensions":null,"purposes":["comms"],"wikipedia_slug":null,"has_3d_model":false,"image_url":null,"decayed_at":null,"tle_current":{"epoch":"2026-05-24T22:29:37.936032Z","epoch_age_seconds":76994,"freshness":"FRESH","line1":"1 53908U 22119Y   26144.93724463  .00002360  00000+0  16640-3 0  9995","line2":"2 53908  53.2135 331.9734 0001502  80.2970 279.8192 15.08827515203331","mean_motion":15.08827515,"eccentricity":0.0001502,"inclination_deg":53.2135,"raan_deg":331.9734,"arg_perigee_deg":80.297,"mean_anomaly_deg":279.8192,"bstar":0.0001664,"rev_number":20333,"period_min":95.438344388888,"perigee_km":538.74247951121,"apogee_km":540.82062224389,"semimajor_km":6917.9185508775,"source":"CELESTRAK","updated_at":"2026-05-25T13:38:17.585892Z"}}}